Regional Weather Roundup
Issued by NWS

Home | Current Version | Previous Version | Text Only | Print | Product List | Glossary On
Versions: 1 2 3 4 5 6 7 8 9 10 11 12 13 14 15 16 17 18 19 20 21 22 23 24 25 26 27 28 29 30 31 32 33 34 35 36 37 38 39 40 41 42 43 44 45 46 47 48 49 50
000
ASUS45 KPSR 161010
RWRAZ

ARIZONA REGIONAL HOURLY WEATHER ROUNDUP
NATIONAL WEATHER SERVICE PHOENIX AZ
300 AM MST TUE SEP 16 2014

NOTE: FAIR INDICATES FEW OR NO CLOUDS BELOW 12,000 FEET WITH NO
SIGNIFICANT WEATHER AND/OR OBSTRUCTIONS TO VISIBILITY.

AZZ001>003-036-161100-
NORTHWEST ARIZONA

CITY           SKY/WX    TMP DP  RH WIND       PRES   REMARKS
BULLHEAD CITY  CLEAR     90  55  31 CALM      29.80S
KINGMAN        CLEAR     75  51  43 SE15      30.02F
$$

AZZ004>008-015-016-018-161100-
NORTH CENTRAL ARIZONA

CITY           SKY/WX    TMP DP  RH WIND       PRES   REMARKS
GRAND CANYON   CLEAR     48  43  82 NE3       30.29F
PRESCOTT       CLEAR     62  51  67 S3        30.18S
FLAGSTAFF      PTCLDY    48  44  86 CALM      30.33F
PAYSON         MOCLDY    68  52  56 CALM      30.22S
PAGE           CLEAR     75  45  34 S9        30.13S
$$

AZZ009>014-017-161100-
NORTHEAST ARIZONA

CITY           SKY/WX    TMP DP  RH WIND       PRES   REMARKS
WINSLOW        CLOUDY    70  54  56 E7        30.19S
SAINT JOHNS    CLOUDY    65  55  70 E8        30.25F
SHOW LOW       CLOUDY    55  48  76 S7        30.31F
$$

AZZ023-161100-
GREATER PHOENIX AREA

CITY           SKY/WX    TMP DP  RH WIND       PRES   REMARKS
PHOENIX        CLOUDY    86  64  47 E7        29.89R
BUCKEYE          N/A     82  72  69 NW5       29.89S
LUKE AFB       MOCLDY    87  62  43 NW2       29.88R
DEER VALLEY    MOCLDY    84  64  50 SE5       29.91R
SCOTTSDALE     CLOUDY    85  63  47 CALM      29.94R
MESA-GATEWAY   CLOUDY   N/A N/A N/A SE3       29.94F
$$

AZZ027-028-161100-
SOUTHWEST MARICOPA COUNTY AND PINAL COUNTY

CITY           SKY/WX    TMP DP  RH WIND       PRES   REMARKS
CASA GRANDE    CLOUDY    79  64  61 CALM      29.94S
$$

AZZ503-504-507>509-161100-
SOUTHEAST ARIZONA

CITY           SKY/WX    TMP DP  RH WIND       PRES   REMARKS
TUCSON         CLOUDY    78  61  55 SE13      30.03F
DAVIS-MONTHAN  CLOUDY    75  63  66 SE10      30.02F
NOGALES        LGT RAIN  67  63  87 CALM      30.10S
SIERRA VISTA   LGT RAIN  64  63  94 SE6       30.17S
DOUGLAS        LGT RAIN  66  64  93 NW3       30.15F
SAFFORD        CLOUDY    75  61  61 E10       30.08S
$$

AZZ020-021-025-026-031-161100-
SOUTHWEST ARIZONA

CITY           SKY/WX    TMP DP  RH WIND       PRES   REMARKS
YUMA           PTCLDY    88  73  61 SE14      29.80R
$$

CAZ031-033-041-043-047-048-061-161100-
SOUTHERN CALIFORNIA

CITY           SKY/WX    TMP DP  RH WIND       PRES   REMARKS
DOWNTOWN L.A.  CLEAR     80  61  52 CALM      29.76F
L.A. AIRPORT   CLEAR     75  61  61 E5        29.77F
SAN DIEGO      CLEAR     76  68  76 CALM      29.78F
BURBANK        CLEAR     83  57  41 CALM      29.79F
ONTARIO        CLEAR     82  55  39 CALM      29.81S
RIVERSIDE      CLEAR     80  56  43 CALM      29.81S
PALM SPRINGS   CLEAR     89  75  63 NE3       29.83R
EL CENTRO NAS  CLEAR     89  70  53 E14       29.74R
IMPERIAL       CLEAR     87  73  62 SE13      29.74R
BLYTHE         CLEAR     86  73  65 S9        29.80S
NEEDLES        CLEAR     89  56  32 NW7       29.81R
$$

NVZ020-UTZ003-161100-
SOUTHERN NEVADA-UTAH

CITY           SKY/WX    TMP DP  RH WIND       PRES   REMARKS
LAS VEGAS      CLEAR     84  48  28 SW7       29.86S
SALT LAKE CITY CLEAR     67  42  40 SE10      30.08F
$$

NMZ009-TXZ055-161100-
NEW MEXICO-WEST TEXAS

CITY           SKY/WX    TMP DP  RH WIND       PRES   REMARKS
ALBUQUERQUE    CLOUDY    66  57  72 NE7       30.30S
EL PASO        LGT RAIN  67  63  87 E5        30.19F
$$


........................KEY........................
SKY/WX - SKY CONDITION/WEATHER
TMP    - TEMPERATURE IN FAHRENHEIT
DP     - DEW POINT IN FAHRENHEIT
RH     - RELATIVE HUMIDITY IN PERCENT
WIND   - DIRECTION AND SPEED IN MILES PER HOUR (MPH)
VRB    - VARIABLE WIND DIRECTION
PRES   - MEAN SEA LEVEL PRESSURE IN INCHES OF MERCURY
         F - FALLING PRESSURE   R - RISING PRESSURE
         S - STEADY PRESSURE
VSB    - VISIBILITY IN MILES
HX     - HEAT INDEX IN FAHRENHEIT
WCI    - WIND CHILL INDEX IN FAHRENHEIT
TC     - TEMPERATURE IN CELSIUS WHICH IS ALSO KNOWN AS
         TEMPERATURE IN CENTIGRADE
AFB    - AIR FORCE BASE
         LUKE AFB IS LUKE AIR FORCE BASE
         DAVIS-MONTHAN IS DAVIS-MONTHAN AIR FORCE BASE
NAS    - NAVAL AIR STATION
         EL CENTRO NAS IS EL CENTRO NAVAL AIR STATION
N/A    - NOT AVAILABLE


USA.gov is the U.S. government's official web portal to all federal, state and local government web resources and services.